GEESAT 3-03

导读

GEESAT 3-03是中国于北京时间2024年9月5日8时成功发射的商业卫星,隶属于GEESAT低轨卫星星座。作为星座组网的重要组成部分,它依托先进遥感技术,可提供高分辨率对地观测服务,广泛服务于国土测绘、环境监测、农业估产与防灾减灾等领域,进一步完善了中国自主商业遥感卫星网络,提升全球对地观测服务能力,支撑各行业数字化应用与空间信息保障需求。

基本信息
目录编号:
61013
目录名称:
GEESAT 3-03
国际标识:
2024-159C
轨道中心:
EARTH
卫星名称:
GEESAT 3-03
卫星全名:
GEESAT 3-03
卫星状态:
在轨 (已飞行736 天)
发射日期:
2024-09-05 UTC
国别 :
中国 (CN)
星等 :
--
该卫星已列入 空间交会检测服务 Space Conjunction Data Service (SCDS) ,当前飞行风险评估等级: 无高风险
轨道信息
数据来源 国际轨道数据 AOE轨道数据
星历时间 2026-09-11T14:12:31+0800
9小时前
查看轨道信息
2026-09-07T03:00:00+0800
4天前
查看轨道信息
半长轴 6993.347km 6993.364km
偏心率 0.0005718 0.0005608
轨道倾角 49.994° 49.991°
近地点辐角 99.549° 80.576°
升交点赤经 42.701° 63.432°
平近点角 260.610° 150.208°
近地点 611.211km 611.305km
远地点 619.209km 619.149km
周期 97.003分钟 97.004分钟
每日圈数 14.844828 14.844775
详细信息
使用方式:
暂无
2D轨道图
3D轨道图
轨道高度分析图
轨道倾角分析图
轨道综合分析图
查看轨道综合分析图
与全量物体交会距离演化趋势
与全量物体交会风险概率演化趋势